Cloud_Cover
86 100 100 100 90 41 100 12 1 1 0 0 2 0 0 0 0 15 39 100 100 100 100 100 100 100 71 100 35 34 94 38 28
96 100 100 100 85 100 8 32 16 33 96 11 0 4 4 0 0 3 2 94 100 100 100 100 99 100 100 100 96 37 24 8 5
100 100 100 96 100 100 78 100 97 74 100 100 72 1 25 28 98 5 0 5 56 100 100 100 100 100 100 100 100 93 32 67 19
100 100 100 95 80 77 100 100 100 100 100 100 100 94 11 86 98 82 67 2 5 5 47 100 99 100 100 100 100 100 100 100 97
100 100 100 100 99 100 79 95 100 100 100 100 100 100 100 100 79 96 100 100 4 4 11 16 6 50 14 100 100 100 100 100 100
100 100 100 100 100 100 100 100 100 100 100 100 100 94 100 100 79 79 46 100 100 100 100 100 10 22 100 100 100 100 100 100 100
100 96 100 100 100 94 100 100 100 100 100 100 100 70 76 93 28 9 67 99 100 100 99 100 16 94 100 100 85 100 100 100 100
100 100 100 100 100 100 100 100 100 100 100 100 100 100 96 60 24 79 76 99 100 100 58 100 100 90 71 100 70 100 100 90 74
100 100 100 100 100 100 100 100 100 100 100 100 100 100 88 82 65 83 88 100 100 100 38 5 7 40 78 81 53 100 100 81 100
100 100 100 100 100 100 100 100 100 100 100 100 100 100 100 100 13 10 48 99 100 100 50 22 66 100 62 100 100 100 97 100 95
100 100 100 100 100 100 100 100 100 100 100 100 100 100 100 100 74 100 43 99 100 100 72 98 64 87 100 99 100 100 100 76 66
81 94 100 100 100 100 100 100 100 100 100 100 100 100 100 100 100 100 100 97 85 99 74 46 67 48 98 99 81 97 100 78 83
100 100 31 8 98 100 100 100 100 100 100 100 100 100 100 100 100 100 100 100 100 100 99 99 100 66 86 100 99 39 50 46 60
100 94 100 90 94 100 100 100 100 100 100 100 100 100 100 100 100 100 100 100 100 100 100 100 100 40 5 95 100 100 23 100 67
100 100 100 100 95 100 100 100 97 100 100 100 100 100 100 100 100 100 100 100 100 100 100 100 100 97 40 77 100 100 100 100 99
100 54 52 71 100 93 100 100 100 100 100 100 100 100 100 100 100 100 100 100 100 100 100 100 100 100 100 100 100 100 100 100 100
100 100 42 3 35 18 3 76 39 19 2 100 100 100 100 100 91 100 100 100 100 98 100 100 100 100 96 97 100 100 100 100 99
98 100 92 13 0 0 4 4 1 5 9 3 55 96 100 100 100 100 100 100 100 100 100 100 100 100 100 100 100 100 100 100 100
37 96 100 62 40 0 0 1 16 12 14 54 9 4 40 34 17 34 86 91 47 53 96 94 88 100 100 100 100 100 100 100 100
58 86 51 100 76 4 0 0 0 0 0 1 0 0 1 0 0 2 5 4 26 96 68 16 65 38 65 84 100 100 100 100 100